Weather History for KCNK - December, 2014

Change the Weather History Date:

Friday, December 26, 2014

  Actual Average Record
Temperature  
Mean Temperature 33 °F 28 °F  
Max Temperature 40 °F 38 °F 64 °F (2008)
Min Temperature 26 °F 19 °F -8 °F (1892)
Degree Days  
Heating Degree Days 32 37  
Month to date heating degree days 743 900  
Since 1 July heating degree days 1906 1992  
Cooling Degree Days 0 0  
Month to date cooling degree days 0 0  
Year to date cooling degree days 1368 1349  
Moisture  
Dew Point 29 °F    
Average Humidity 83    
Maximum Humidity 100    
Minimum Humidity 65    
Precipitation  
Precipitation 0.02 in 0.02 in 0.70 in (1942)
Month to date precipitation 0.74 0.75  
Year to date precipitation 27.20 27.79  
Snow  
Snow 0.00 in 0.20 in 3.20 in (1987)
Month to date snowfall 5.0 3.1  
Year to date snowfall 23.0 19.5  
Since 1 July snowfall 6.1 5.8  
Snow Depth 0.00 in    
Sea Level Pressure  
Sea Level Pressure 29.99 in    
Wind  
Wind Speed 12 mph (North)    
Max Wind Speed 22 mph    
Max Gust Speed 28 mph    
Visibility 7 miles    
Events Rain , Snow    
T = Trace of Precipitation, MM = Missing Value Source: NWS Daily Summary

Daily Weather History Graph

Daily Weather History Graph

Search for Another Location

Airport or City:

Trip Planner

Search our weather history database for the weather conditions in past years. The results will help you decide how hot, cold, wet, or windy it might be!

Date:

Astronomy

Dec. 26, 2014 Rise Set
Actual Time 7:49 AM CST 5:12 PM CST
Civil Twilight 7:19 AM CST 5:43 PM CST
Nautical Twilight 6:45 AM CST 6:17 PM CST
Astronomical Twilight 6:12 AM CST 6:49 PM CST
Moon 11:03 AM CST (12/26) 10:55 PM CST (12/26)
Length of Visible Light 10h 23m
Length of Day
9h 23m
Waxing Crescent, 28% of the Moon is Illuminated
Dec 26
Waxing Crescent
Dec 28
First Quarter
Jan 4
Full
Jan 13
Last Quarter
Jan 20
New

Hourly Weather History & Observations

Time (CST) Temp. Windchill Dew Point Humidity Pressure Visibility Wind Dir Wind Speed Gust Speed Precip Events Conditions
12:55 AM 30.9 °F 21.7 °F 28.9 °F 92% 29.77 in 10.0 mi NNW 11.5 mph - N/A   Clear
1:55 AM 30.9 °F 21.7 °F 28.9 °F 92% 29.79 in 10.0 mi NNW 11.5 mph - N/A   Clear
2:13 AM 30.9 °F 21.2 °F 28.9 °F 92% 29.79 in 10.0 mi North 12.7 mph - N/A   Partly Cloudy
2:27 AM 30.9 °F 21.7 °F 30.0 °F 96% 29.80 in 10.0 mi North 11.5 mph - N/A   Mostly Cloudy
2:55 AM 32.0 °F 21.6 °F 30.9 °F 96% 29.84 in 10.0 mi North 15.0 mph - N/A   Overcast
3:02 AM 32.0 °F 22.5 °F 30.9 °F 96% 29.83 in 9.0 mi North 12.7 mph - N/A   Overcast
3:41 AM 33.1 °F 22.2 °F 30.9 °F 92% 29.85 in 8.0 mi North 17.3 mph - N/A   Overcast
3:55 AM 33.1 °F 22.6 °F 30.9 °F 92% 29.87 in 9.0 mi North 16.1 mph 25.3 mph N/A   Overcast
4:55 AM 33.1 °F 23.9 °F 30.9 °F 92% 29.88 in 10.0 mi North 12.7 mph 23.0 mph N/A   Overcast
5:46 AM 32.0 °F 22.1 °F 30.9 °F 96% 29.87 in 8.0 mi North 13.8 mph - N/A   Overcast
5:55 AM 32.0 °F 23.6 °F 30.9 °F 96% 29.91 in 8.0 mi North 10.4 mph - N/A   Overcast
6:55 AM 32.0 °F 20.8 °F 30.0 °F 92% 29.95 in 10.0 mi North 17.3 mph 23.0 mph N/A   Overcast
7:03 AM 32.0 °F 21.2 °F 30.0 °F 92% 29.92 in 10.0 mi North 16.1 mph - N/A   Overcast
7:55 AM 32.0 °F 20.8 °F 28.9 °F 88% 29.98 in 10.0 mi NNE 17.3 mph 26.5 mph N/A   Overcast
8:02 AM 32.0 °F 22.5 °F 28.9 °F 88% 29.97 in 10.0 mi NNE 12.7 mph 25.3 mph N/A   Overcast
8:55 AM 30.9 °F 20.7 °F 28.0 °F 89% 29.99 in 10.0 mi NNE 13.8 mph - N/A   Overcast
9:34 AM 30.9 °F 20.7 °F 28.0 °F 89% 29.98 in 10.0 mi North 13.8 mph - N/A   Overcast
9:55 AM 30.9 °F 19.4 °F 28.0 °F 89% 30.01 in 10.0 mi North 17.3 mph 25.3 mph N/A   Overcast
10:19 AM 30.9 °F 21.2 °F 28.0 °F 89% 30.00 in 10.0 mi North 12.7 mph - N/A   Overcast
10:55 AM 30.9 °F 20.2 °F 28.0 °F 89% 30.02 in 10.0 mi North 15.0 mph 20.7 mph N/A   Overcast
11:11 AM 30.9 °F 19.8 °F 28.0 °F 89% 29.98 in 10.0 mi North 16.1 mph - N/A   Overcast
11:35 AM 30.9 °F 19.4 °F 28.0 °F 89% 29.97 in 10.0 mi North 17.3 mph - N/A   Overcast
11:55 AM 30.9 °F 19.8 °F 28.0 °F 89% 29.98 in 10.0 mi NNE 16.1 mph - N/A   Overcast
12:07 PM 30.9 °F 19.4 °F 28.0 °F 89% 29.96 in 10.0 mi NNE 17.3 mph 23.0 mph N/A   Overcast
12:23 PM 30.9 °F 21.7 °F 28.0 °F 89% 29.97 in 10.0 mi NNE 11.5 mph - N/A   Overcast
12:55 PM 32.0 °F 23.0 °F 28.0 °F 85% 30.01 in 10.0 mi NNE 11.5 mph - N/A   Overcast
1:55 PM 30.9 °F 21.7 °F 28.0 °F 89% 30.00 in 10.0 mi North 11.5 mph - N/A   Overcast
2:08 PM 30.9 °F 20.7 °F 28.0 °F 89% 29.96 in 8.0 mi North 13.8 mph - N/A   Overcast
2:55 PM 30.9 °F 22.2 °F 28.9 °F 92% 29.99 in 5.0 mi North 10.4 mph - N/A   Overcast
3:55 PM 30.0 °F 21.1 °F 28.9 °F 96% 30.02 in 2.5 mi North 10.4 mph - N/A   Overcast
4:05 PM 30.0 °F 21.1 °F 28.9 °F 96% 29.98 in 1.5 mi North 10.4 mph - N/A   Overcast
4:13 PM 30.0 °F 21.1 °F 28.9 °F 96% 29.99 in 1.8 mi North 10.4 mph - N/A   Overcast
4:21 PM 30.0 °F 23.2 °F 28.9 °F 96% 30.00 in 1.5 mi North 6.9 mph - N/A   Overcast
4:36 PM 30.0 °F 20.5 °F 28.9 °F 96% 29.99 in 1.2 mi North 11.5 mph - 0.00 in Rain Light Freezing Rain
4:47 PM 30.0 °F 21.7 °F 30.0 °F 100% 29.99 in 1.2 mi North 9.2 mph - 0.00 in Rain Light Freezing Rain
4:55 PM 30.0 °F 21.7 °F 30.0 °F 100% 30.01 in 1.5 mi North 9.2 mph - 0.00 in Rain Light Freezing Rain
5:04 PM 30.0 °F 21.1 °F 30.0 °F 100% 29.97 in 2.0 mi NNE 10.4 mph - 0.00 in Rain Light Freezing Rain
5:32 PM 30.0 °F 21.1 °F 28.9 °F 96% 29.98 in 3.0 mi North 10.4 mph - 0.00 in   Overcast
5:53 PM 30.2 °F 22.6 °F 28.4 °F 93% 30.01 in 2.5 mi North 8.1 mph - 0.00 in   Overcast
5:55 PM 30.0 °F 23.2 °F 28.9 °F 96% 30.05 in 2.5 mi NNW 6.9 mph - 0.00 in   Overcast
6:03 PM 30.0 °F 23.2 °F 28.9 °F 96% 30.01 in 3.0 mi NNW 6.9 mph - N/A   Overcast
6:55 PM 28.9 °F 20.4 °F 28.9 °F 100% 30.06 in 4.0 mi North 9.2 mph - N/A   Overcast
7:33 PM 28.9 °F 21.9 °F 28.9 °F 100% 30.03 in 2.5 mi NNW 6.9 mph - N/A   Overcast
7:55 PM 28.9 °F 21.9 °F 28.9 °F 100% 30.08 in 2.5 mi NNW 6.9 mph - 0.00 in Snow Light Snow
8:34 PM 28.9 °F 20.4 °F 28.9 °F 100% 30.05 in 3.0 mi NNW 9.2 mph - 0.00 in   Overcast
8:45 PM 28.9 °F 21.1 °F 28.9 °F 100% 30.06 in 2.5 mi NW 8.1 mph - 0.00 in Snow Light Snow
8:55 PM 28.9 °F 20.4 °F 28.9 °F 100% 30.09 in 2.0 mi NW 9.2 mph - 0.01 in Snow Light Snow
9:09 PM 28.9 °F 20.4 °F 28.9 °F 100% 30.05 in 1.8 mi NW 9.2 mph - 0.01 in Snow Light Snow
9:22 PM 28.9 °F 18.6 °F 28.0 °F 96% 30.06 in 2.0 mi NW 12.7 mph - 0.01 in Snow Light Snow
9:32 PM 28.9 °F 18.6 °F 28.0 °F 96% 30.07 in 4.0 mi NW 12.7 mph - 0.01 in Snow Light Snow
9:47 PM 28.0 °F 18.1 °F 27.0 °F 96% 30.07 in 5.0 mi NW 11.5 mph - 0.01 in Snow Light Snow
9:55 PM 28.0 °F 17.0 °F 27.0 °F 96% 30.12 in 9.0 mi NW 13.8 mph - 0.01 in   Overcast
10:08 PM 28.0 °F 17.5 °F 26.1 °F 92% 30.08 in 10.0 mi NW 12.7 mph - N/A   Overcast
10:25 PM 28.0 °F 17.5 °F 26.1 °F 92% 30.08 in 9.0 mi NW 12.7 mph - 0.00 in Snow Light Snow
10:55 PM 27.0 °F 16.7 °F 25.0 °F 92% 30.15 in 8.0 mi NW 11.5 mph - 0.00 in Snow Light Snow
11:55 PM 26.1 °F 15.6 °F 24.1 °F 92% 30.16 in 10.0 mi NW 11.5 mph - 0.00 in   Overcast